TimeEDT,TemperatureF,Dew PointF,Humidity,Sea Level PressureIn,VisibilityMPH,Wind Direction,Wind SpeedMPH,Gust SpeedMPH,PrecipitationIn,Events,Conditions,WindDirDegrees,DateUTC
12:15 AM,71.8,71.6,99,30.25,10.0,Calm,Calm,-,N/A,,Mostly Cloudy,0,2013-08-21 04:15:00
12:35 AM,71.4,71.1,99,30.25,10.0,East,3.5,-,N/A,,Mostly Cloudy,90,2013-08-21 04:35:00
12:55 AM,70.5,70.5,100,30.25,10.0,Calm,Calm,-,N/A,,Mostly Cloudy,0,2013-08-21 04:55:00
1:15 AM,70.0,70.0,100,30.25,10.0,Calm,Calm,-,N/A,,Scattered Clouds,0,2013-08-21 05:15:00
1:35 AM,69.8,69.8,100,30.24,10.0,Calm,Calm,-,N/A,,Clear,0,2013-08-21 05:35:00
1:55 AM,69.4,69.4,100,30.24,10.0,Calm,Calm,-,N/A,,Clear,0,2013-08-21 05:55:00
2:15 AM,68.7,68.7,100,30.24,10.0,Calm,Calm,-,N/A,,Clear,0,2013-08-21 06:15:00
2:35 AM,68.4,68.4,100,30.23,10.0,Calm,Calm,-,N/A,,Clear,0,2013-08-21 06:35:00
2:55 AM,68.0,68.0,100,30.23,10.0,Calm,Calm,-,N/A,,Clear,0,2013-08-21 06:55:00
3:15 AM,68.2,68.2,100,30.23,10.0,Calm,Calm,-,N/A,,Clear,0,2013-08-21 07:15:00
3:35 AM,68.2,68.2,100,30.23,10.0,Calm,Calm,-,N/A,,Clear,0,2013-08-21 07:35:00
3:55 AM,67.5,67.5,100,30.23,10.0,Calm,Calm,-,N/A,,Clear,0,2013-08-21 07:55:00
4:15 AM,68.2,68.2,100,30.23,10.0,Calm,Calm,-,N/A,,Scattered Clouds,0,2013-08-21 08:15:00
4:35 AM,68.2,68.2,100,30.23,10.0,Calm,Calm,-,N/A,,Mostly Cloudy,0,2013-08-21 08:35:00
4:55 AM,68.4,68.4,100,30.24,10.0,Calm,Calm,-,N/A,,Overcast,0,2013-08-21 08:55:00
5:15 AM,68.0,68.0,100,30.24,10.0,Calm,Calm,-,N/A,,Overcast,0,2013-08-21 09:15:00
5:35 AM,68.4,68.4,100,30.25,10.0,Calm,Calm,-,N/A,,Overcast,0,2013-08-21 09:35:00
5:55 AM,68.0,68.0,100,30.25,10.0,Calm,Calm,-,N/A,,Overcast,0,2013-08-21 09:55:00
6:15 AM,68.7,68.7,100,30.25,10.0,Calm,Calm,-,N/A,,Overcast,0,2013-08-21 10:15:00
6:35 AM,68.2,68.2,100,30.26,10.0,Calm,Calm,-,N/A,,Mostly Cloudy,0,2013-08-21 10:35:00
6:55 AM,68.4,68.4,100,30.26,10.0,Calm,Calm,-,N/A,,Scattered Clouds,0,2013-08-21 10:55:00
7:15 AM,68.4,68.4,100,30.26,10.0,Calm,Calm,-,N/A,,Clear,0,2013-08-21 11:15:00
7:35 AM,68.0,68.0,100,30.27,10.0,SE,3.5,-,N/A,,Clear,130,2013-08-21 11:35:00
7:55 AM,68.4,68.4,100,30.27,10.0,Calm,Calm,-,N/A,,Scattered Clouds,0,2013-08-21 11:55:00
8:15 AM,68.9,68.9,100,30.27,10.0,Calm,Calm,-,N/A,,Scattered Clouds,0,2013-08-21 12:15:00
8:35 AM,69.8,69.8,100,30.28,10.0,ENE,3.5,-,N/A,,Clear,70,2013-08-21 12:35:00
8:55 AM,70.0,69.4,98,30.28,10.0,Calm,Calm,-,N/A,,Scattered Clouds,0,2013-08-21 12:55:00
9:15 AM,70.7,70.2,98,30.29,10.0,East,3.5,-,N/A,,Mostly Cloudy,80,2013-08-21 13:15:00
9:35 AM,71.1,70.0,96,30.28,10.0,Calm,Calm,-,N/A,,Scattered Clouds,0,2013-08-21 13:35:00
9:55 AM,72.0,70.9,96,30.28,10.0,Calm,Calm,-,N/A,,Scattered Clouds,0,2013-08-21 13:55:00
10:15 AM,73.0,71.1,93,30.29,10.0,Calm,Calm,-,N/A,,Scattered Clouds,0,2013-08-21 14:15:00
10:35 AM,74.5,71.6,91,30.29,10.0,East,3.5,-,N/A,,Scattered Clouds,90,2013-08-21 14:35:00
10:55 AM,76.1,71.8,86,30.30,10.0,Calm,Calm,-,N/A,,Mostly Cloudy,0,2013-08-21 14:55:00
11:15 AM,77.7,72.0,82,30.30,10.0,Calm,Calm,-,N/A,,Scattered Clouds,0,2013-08-21 15:15:00
11:35 AM,77.0,70.5,80,30.30,10.0,Calm,Calm,-,N/A,,Scattered Clouds,0,2013-08-21 15:35:00
11:55 AM,77.5,70.9,80,30.30,10.0,Calm,Calm,-,N/A,,Mostly Cloudy,0,2013-08-21 15:55:00
12:15 PM,78.1,72.5,83,30.29,10.0,SW,3.5,-,N/A,,Overcast,220,2013-08-21 16:15:00
12:35 PM,79.2,71.8,78,30.28,10.0,SSW,4.6,-,N/A,,Mostly Cloudy,200,2013-08-21 16:35:00
12:55 PM,79.5,72.3,79,30.28,10.0,Calm,Calm,-,N/A,,Mostly Cloudy,0,2013-08-21 16:55:00
1:15 PM,81.1,71.4,72,30.27,10.0,West,3.5,-,N/A,,Scattered Clouds,260,2013-08-21 17:15:00
1:35 PM,80.6,70.9,72,30.27,10.0,South,3.5,-,N/A,,Scattered Clouds,170,2013-08-21 17:35:00
1:55 PM,81.1,71.1,71,30.26,10.0,West,4.6,-,N/A,,Mostly Cloudy,260,2013-08-21 17:55:00
2:15 PM,81.1,71.2,72,30.25,10.0,Calm,Calm,-,N/A,,Mostly Cloudy,0,2013-08-21 18:15:00
2:35 PM,80.6,72.0,75,30.24,10.0,NNW,4.6,-,N/A,,Mostly Cloudy,330,2013-08-21 18:35:00
2:55 PM,81.5,72.0,73,30.23,10.0,Calm,Calm,-,N/A,,Scattered Clouds,0,2013-08-21 18:55:00
3:15 PM,81.7,72.0,72,30.23,10.0,West,3.5,-,N/A,,Scattered Clouds,280,2013-08-21 19:15:00
3:35 PM,81.0,71.6,73,30.23,10.0,Calm,Calm,-,N/A,,Mostly Cloudy,0,2013-08-21 19:35:00
3:55 PM,80.8,72.1,75,30.23,10.0,West,4.6,-,N/A,,Mostly Cloudy,270,2013-08-21 19:55:00
4:15 PM,80.6,72.0,75,30.23,10.0,WNW,4.6,-,N/A,,Scattered Clouds,300,2013-08-21 20:15:00
4:35 PM,79.9,72.0,77,30.22,10.0,WNW,6.9,-,N/A,,Scattered Clouds,290,2013-08-21 20:35:00
4:55 PM,79.3,72.7,80,30.21,10.0,West,3.5,-,N/A,,Mostly Cloudy,280,2013-08-21 20:55:00
5:15 PM,79.0,71.2,77,30.20,10.0,WSW,8.1,-,N/A,,Scattered Clouds,240,2013-08-21 21:15:00
5:35 PM,78.4,70.9,77,30.20,10.0,West,4.6,-,N/A,,Clear,280,2013-08-21 21:35:00
5:55 PM,78.8,71.8,79,30.20,10.0,West,4.6,-,N/A,,Clear,280,2013-08-21 21:55:00
6:15 PM,78.4,73.6,85,30.20,10.0,NNW,5.8,-,N/A,,Scattered Clouds,330,2013-08-21 22:15:00
6:35 PM,77.9,73.4,86,30.20,10.0,NW,4.6,-,N/A,,Mostly Cloudy,310,2013-08-21 22:35:00
6:55 PM,77.4,72.7,85,30.21,10.0,NNW,5.8,-,N/A,,Scattered Clouds,330,2013-08-21 22:55:00
7:15 PM,74.7,73.8,97,30.21,4.0,NW,9.2,-,0.01,Rain,Heavy Rain,320,2013-08-21 23:15:00
7:35 PM,70.3,67.6,91,30.22,3.0,Calm,Calm,-,0.25,Rain-Thunderstorm,Rain,0,2013-08-21 23:35:00
7:55 PM,68.9,68.4,98,30.22,10.0,Calm,Calm,-,0.26,Thunderstorm,Overcast,0,2013-08-21 23:55:00
8:15 PM,68.4,68.4,100,30.21,10.0,Calm,Calm,-,N/A,,Scattered Clouds,0,2013-08-22 00:15:00
8:35 PM,68.0,68.0,100,30.22,10.0,Calm,Calm,-,N/A,,Clear,0,2013-08-22 00:35:00
8:55 PM,68.9,68.9,100,30.23,10.0,Calm,Calm,-,N/A,,Scattered Clouds,0,2013-08-22 00:55:00
9:15 PM,69.8,69.8,100,30.23,10.0,Calm,Calm,-,N/A,,Mostly Cloudy,0,2013-08-22 01:15:00
9:35 PM,69.1,69.1,100,30.23,7.0,Calm,Calm,-,N/A,,Scattered Clouds,0,2013-08-22 01:35:00
9:55 PM,68.5,68.5,100,30.24,7.0,East,3.5,-,N/A,,Scattered Clouds,90,2013-08-22 01:55:00
10:15 PM,68.0,68.0,100,30.24,10.0,Calm,Calm,-,N/A,,Scattered Clouds,0,2013-08-22 02:15:00
10:35 PM,67.3,67.3,100,30.25,7.0,Calm,Calm,-,N/A,,Scattered Clouds,0,2013-08-22 02:35:00
10:55 PM,67.5,67.5,100,30.25,10.0,Calm,Calm,-,N/A,,Scattered Clouds,0,2013-08-22 02:55:00
11:15 PM,67.3,67.3,100,30.25,10.0,Calm,Calm,-,N/A,,Mostly Cloudy,0,2013-08-22 03:15:00
11:35 PM,67.1,67.1,100,30.24,10.0,Calm,Calm,-,N/A,,Overcast,0,2013-08-22 03:35:00
11:55 PM,66.7,66.7,100,30.24,10.0,Calm,Calm,-,N/A,,Mostly Cloudy,0,2013-08-22 03:55:00